This demonstration page uses our WeatherBlox Daily Observations layout. Learn more.

Left ArrowRight Arrow

Hourly Observations for July 1, 2016

Temp ( °F °C ) Dew Point ( °F °C ) Humidity (%) Winds ( mph kmh ) Pressure ( in mb ) Visibility ( mi km ) Precip ( " mm )
12:53 am 00:53 Clear 66 18.9 59 15 78 78 ENE 3 6 30.09 1019 10 16 0.00 0.00
1:53 am 01:53 Clear 64 17.8 59 15 84 84 NE 3 6 30.09 1019 10 16 0.00 0.00
2:53 am 02:53 Clear 63 17.2 58 14.4 84 84 ENE 6 9 30.08 1019 10 16 0.00 0.00
3:53 am 03:53 Clear 62 16.7 57 13.9 84 84 NE 7 11 30.10 1019 10 16 0.00 0.00
4:53 am 04:53 Clear 61 16.1 57 13.9 87 87 ENE 7 11 30.11 1020 10 16 0.00 0.00
5:53 am 05:53 Clear 60 15.6 55 12.8 84 84 ENE 7 11 30.12 1020 10 16 0.00 0.00
6:53 am 06:53 Sunny 59 15 54 12.2 83 83 ENE 7 11 30.14 1021 10 16 0.00 0.00
7:53 am 07:53 Sunny 60 15.6 53 11.7 78 78 ENE 8 13 30.14 1021 10 16 0.00 0.00
8:53 am 08:53 Sunny 65 18.3 53 11.7 66 66 E 7 11 30.15 1021 10 16 0.00 0.00
9:53 am 09:53 Sunny 68 20 53 11.7 59 59 E 9 15 30.15 1021 10 16 0.00 0.00
10:53 am 10:53 Sunny 70 21.1 54 12.2 57 57 ESE 9 15 30.15 1021 10 16 0.00 0.00
11:53 am 11:53 Sunny 73 22.8 55 12.8 53 53 E 8 13 30.13 1020 10 16 0.00 0.00
12:53 pm 12:53 Sunny 75 23.9 55 12.8 50 50 E 9 15 30.13 1020 10 16 0.00 0.00
1:53 pm 13:53 Sunny 76 24.4 56 13.3 50 50 ESE 12 19 30.12 1020 10 16 0.00 0.00
2:53 pm 14:53 Mostly Cloudy 76 24.4 55 12.8 48 48 SE 8 13 30.11 1020 10 16 0.00 0.00
3:53 pm 15:53 Cloudy 75 23.9 54 12.2 48 48 ESE 8 13 30.10 1019 10 16 0.00 0.00
4:53 pm 16:53 Cloudy with Light Rain 73 22.8 55 12.8 53 53 SE 9 15 30.07 1018 10 16 0.00 0.03
5:53 pm 17:53 Cloudy 74 23.3 53 11.7 48 48 E 7 11 30.06 1018 10 16 0.00 0.03
6:53 pm 18:53 Sunny 82 28 61 16 48 48 NE 14 22 29.91 1013 10 16 0.00 0.00
7:53 pm 19:53 Cloudy 70 21.1 52 11.1 53 53 E 10 17 30.04 1017 10 16 0.00 0.03
8:53 pm 20:53 Cloudy 68 20 54 12.2 61 61 E 8 13 30.04 1017 10 16 0.00 0.00
9:53 pm 21:53 Cloudy 68 20 51 10.6 55 55 E 8 13 30.04 1017 10 16 0.00 0.00
10:53 pm 22:53 Cloudy 68 20 49 9.4 51 51 E 10 17 30.03 1017 10 16 0.00 0.00
11:53 pm 23:53 Cloudy 68 20 49 9.4 51 51 E 12 19 30.02 1017 10 16 0.00 0.00

Powered by AerisWeather